Tracking 29892 objects as of 21-Nov-2024
HD Live streaming from Space Station
objects crossing your sky now

IABS R/B

Track IABS R/B now!


NORAD ID: 21877
Int'l Code: 1992-006C
Perigee: 30,538.5 km
Apogee: 35,624.8 km
Inclination: 8.3 °
Period: 1,299.8 minutes
Semi major axis: 39452 km
RCS: Unknown
Launch date: February 11, 1992
Source: United States (US)
Launch site: AIR FORCE EASTERN TEST RANGE (AFETR)

Note: This is a ROCKET BODY
Your satellite tracking list
Your tracking list is empty




NASA's NSSDC Master Catalog

Two Line Element Set (TLE):
1 21877U 92006C   24325.96709596 -.00000187  00000-0  00000+0 0  9995
2 21877   8.2888 325.5111 0644610  87.7805 279.5765  1.10786825 21502
Source of the keplerian elements: McCants